Theta_e
307 306 307 307 309 310 310 310 311 312 314 315 315 315 314 313 312 313 311 317 313 308 312 312 310 310 311 311 310 312 313 315 313 308 306 306 305 307 304 307 305 303 302 303 305 300 297 315 313 306 312 316 320 319
307 306 307 307 309 310 310 310 310 311 312 314 315 314 313 313 310 311 309 316 316 311 311 314 315 315 312 311 311 318 315 314 315 312 312 311 306 308 305 301 312 304 310 307 307 308 313 313 312 315 314 310 313 315
307 306 307 306 307 309 309 310 310 312 312 314 314 314 313 311 309 310 312 315 313 309 308 310 309 312 315 314 316 312 315 317 318 321 318 314 304 312 303 306 308 312 315 310 308 310 310 310 312 313 313 310 310 311
307 307 307 306 306 308 310 310 310 312 313 313 312 312 312 310 310 312 312 316 313 308 301 304 312 311 315 317 316 317 318 320 321 319 317 315 310 315 311 310 309 312 313 308 311 308 311 310 310 310 310 311 311 311
306 307 307 306 306 307 308 310 311 311 311 311 311 311 311 310 309 313 315 316 315 307 299 303 310 313 316 316 315 315 318 317 315 311 315 312 317 314 317 314 310 315 311 312 309 314 313 309 314 315 313 311 312 311
306 306 307 306 306 306 307 307 308 309 309 310 310 309 310 310 308 311 304 313 315 313 304 299 310 311 314 316 315 314 318 317 315 312 311 317 317 315 310 308 313 314 317 318 314 317 314 317 317 316 313 312 312 313
305 306 306 307 306 306 306 307 307 308 309 309 309 309 309 308 311 305 303 309 310 314 304 301 302 310 314 316 315 315 317 316 314 313 309 313 314 314 310 306 311 316 319 318 318 317 314 315 315 315 313 313 312 313
303 305 306 306 307 306 306 306 307 308 308 308 309 309 308 307 306 306 310 309 311 310 308 303 302 305 314 309 308 318 312 314 313 312 311 307 312 313 305 312 313 318 318 317 317 318 318 316 314 314 314 314 312 313
302 303 306 306 307 307 307 306 306 307 308 308 308 308 307 307 306 309 310 308 315 310 303 304 299 298 311 310 312 311 313 305 313 307 308 308 306 302 308 310 315 318 316 317 317 317 316 313 312 312 312 311 309 310
302 302 304 305 306 306 307 307 307 308 308 308 306 303 300 307 310 311 309 305 305 307 307 303 308 302 308 307 305 307 309 306 301 306 309 303 303 311 311 314 318 319 316 319 314 312 312 311 311 310 308 309 309 308
301 302 303 304 305 306 307 307 307 306 305 305 303 301 307 308 309 307 299 297 299 296 302 307 307 304 312 304 303 311 304 306 299 304 303 302 302 308 314 316 317 317 318 319 318 316 315 313 310 309 308 308 308 308
301 303 302 302 304 306 307 306 304 304 305 305 306 309 309 305 302 297 294 297 295 293 300 302 304 308 309 314 307 306 303 304 296 308 303 299 308 313 314 313 315 317 316 316 316 314 312 311 311 310 309 308 308 309
301 302 300 300 302 306 306 305 306 306 306 308 306 302 301 300 290 291 288 291 293 296 300 302 302 307 309 311 308 305 299 299 308 301 300 305 312 313 314 314 314 316 315 314 312 312 311 311 311 310 308 309 308 308
303 301 300 300 302 306 306 306 306 306 306 300 298 289 294 292 294 296 294 295 301 301 302 305 305 307 309 304 306 298 303 305 297 295 297 308 312 313 314 314 314 313 314 312 312 311 310 310 309 310 309 309 308 307
302 301 300 301 303 306 306 305 306 308 305 297 299 291 293 299 301 301 302 302 303 305 302 304 305 306 304 301 304 302 297 295 297 299 306 312 314 314 314 314 314 313 313 312 312 311 310 310 309 308 309 310 309 309
301 300 298 301 304 305 305 307 307 307 304 301 300 296 299 298 298 299 300 301 304 304 305 308 302 299 297 301 297 295 294 293 300 307 312 314 314 315 315 315 314 314 314 313 312 311 310 309 309 309 309 309 309 309
301 297 300 304 304 304 304 305 306 300 301 298 299 304 303 302 300 301 302 302 306 302 300 302 297 296 301 297 295 300 298 302 309 311 314 316 315 315 316 314 314 314 313 312 312 311 310 311 311 309 307 309 310 310
298 302 304 304 305 302 304 306 302 300 295 300 298 301 304 305 303 303 306 307 305 302 303 300 305 298 296 293 296 302 308 312 314 313 314 316 317 316 315 314 314 314 313 312 311 311 310 310 309 308 309 310 310 310
303 303 304 304 305 301 300 299 302 295 297 301 303 305 306 304 307 308 309 309 310 310 308 304 298 298 299 304 305 306 310 312 311 312 314 316 317 315 315 315 314 313 312 312 311 310 310 311 310 309 309 310 308 310
303 304 304 303 305 302 296 299 305 298 297 299 303 302 305 304 307 308 308 309 308 306 301 300 300 304 306 309 314 314 313 315 313 310 311 313 315 315 314 313 312 313 312 312 312 303 311 310 311 310 311 310 310 309
302 303 304 305 305 303 301 300 299 300 300 300 303 303 302 305 305 306 307 310 306 305 302 307 309 311 313 314 316 316 314 315 313 312 312 311 314 314 314 314 314 311 310 309 309 307 304 308 309 310 310 310 310 312
304 303 305 304 301 300 299 301 300 302 301 301 301 302 301 300 302 304 307 305 304 305 308 312 312 311 311 313 314 315 316 317 316 312 305 307 312 312 312 312 311 309 310 310 311 310 310 311 311 311 310 311 307 312
302 304 304 301 295 294 293 301 296 297 294 296 299 296 298 299 302 305 303 304 305 308 312 313 312 314 313 313 314 315 316 315 313 313 313 313 314 314 313 313 313 311 310 310 311 311 311 303 306 310 310 308 310 311
300 300 296 295 295 290 297 294 298 296 297 295 294 291 295 299 302 299 296 302 305 308 308 310 311 310 311 312 311 313 314 314 313 314 314 313 312 313 314 313 314 314 315 315 313 312 311 310 304 310 309 307 308 308
292 291 294 287 296 291 289 290 291 293 289 292 290 291 295 300 296 294 294 300 303 304 307 309 310 310 311 312 312 312 315 314 311 310 313 314 313 313 312 313 314 314 316 313 312 312 312 311 311 309 308 308 306 307
286 291 290 292 292 290 290 287 289 289 291 290 292 297 300 297 291 290 298 304 304 305 307 308 309 309 309 310 310 310 311 314 313 310 312 314 313 311 310 309 309 310 314 313 311 311 310 311 311 310 309 307 294 306
287 289 295 300 298 295 293 295 295 293 289 288 292 293 294 289 290 298 305 309 309 309 311 311 312 311 309 311 312 313 314 314 314 313 314 314 315 316 313 310 308 312 315 313 312 311 310 310 310 310 310 310 310 307
294 295 291 295 295 297 291 293 291 291 293 297 297 292 291 293 296 306 310 312 312 313 312 313 314 314 313 313 313 312 312 313 314 314 314 314 315 315 314 314 316 291 311 315 313 313 312 312 311 311 310 309 309 310
294 298 297 292 293 295 294 293 294 298 302 299 296 295 298 305 310 310 309 311 313 311 309 309 310 313 313 313 313 313 313 313 310 307 305 304 306 309 312 312 313 313 313 313 291 297 309 310 311 311 311 311 311 309
294 299 294 292 291 291 297 299 300 303 305 305 306 305 305 307 309 311 310 310 309 309 311 311 311 311 310 308 306 308 309 310 310 307 305 305 307 312 312 312 313 313 312 311 309 311 288 302 302 311 309 309 309 309
299 298 295 295 294 298 301 302 302 306 305 304 304 302 303 306 308 310 310 309 309 308 308 308 310 311 311 309 308 307 306 310 311 312 311 311 311 312 313 313 313 314 313 311 309 308 310 309 309 310 309 308 308 305
298 296 295 295 296 303 304 302 302 302 303 302 302 305 304 303 301 306 309 309 306 305 299 305 307 307 310 311 311 312 291 312 312 312 311 312 312 314 313 313 313 310 311 311 310 308 309 308 309 309 308 308 307 305
299 300 301 301 299 299 302 301 300 299 301 300 301 302 302 301 298 305 311 311 308 307 306 307 309 310 312 311 311 311 300 314 305 290 291 290 290 298 311 311 312 312 311 312 308 311 309 307 309 307 306 307 308 309
Wind_Speed
12 15 20 24 18 15 21 20 19 18 18 20 20 21 19 16 8 2 3 4 3 3 1 1 1 2 0 2 2 5 5 4 5 4 3 3 3 3 3 2 2 5 4 5 3 6 6 14 2 9 10 12 9 9
10 14 19 24 11 14 17 20 18 18 17 20 21 21 19 13 8 2 2 2 2 4 5 2 4 6 5 5 6 2 4 3 4 1 2 2 2 4 3 4 3 4 4 5 5 7 7 8 8 8 9 7 13 10
10 14 16 21 21 9 15 14 16 17 20 20 21 21 19 15 6 0 3 3 3 3 4 5 2 4 1 4 5 5 4 3 4 5 2 2 3 3 5 2 2 4 2 3 4 8 10 8 8 10 9 10 12 13
14 11 13 18 21 14 14 14 19 18 22 23 24 21 17 14 6 3 4 3 2 2 4 5 1 1 3 0 3 2 4 3 1 2 1 0 1 2 1 4 4 5 4 2 9 11 11 7 2 4 6 10 9 11
13 11 9 14 19 23 20 18 25 28 27 24 23 21 18 13 5 4 3 2 0 5 1 2 2 3 1 3 5 4 4 4 2 2 1 2 2 3 1 3 3 3 3 1 3 7 7 10 6 2 5 6 4 6
12 11 10 8 15 17 19 20 22 23 22 22 20 16 15 11 7 4 4 4 2 2 4 4 4 3 4 4 6 5 2 2 2 3 3 2 2 4 2 2 6 4 5 5 8 12 9 10 4 7 8 7 6 7
11 10 9 8 9 14 14 14 15 17 17 17 18 16 14 11 7 3 4 4 4 2 3 4 6 5 5 7 4 4 2 2 3 1 3 2 3 4 3 2 5 5 6 10 12 13 11 6 4 6 6 6 6 8
9 9 8 7 8 10 14 11 11 14 14 15 17 15 11 6 1 3 3 2 2 3 3 2 4 7 6 6 5 2 4 3 3 2 2 5 4 4 4 7 4 8 9 13 9 5 9 7 6 8 7 7 8 10
6 7 8 7 5 11 12 12 11 12 13 15 15 13 5 4 4 4 6 5 2 5 2 3 5 6 6 4 4 5 3 4 3 4 2 3 5 6 3 5 6 10 7 13 10 10 9 10 11 9 8 7 8 8
2 4 6 8 5 6 14 12 12 12 12 12 7 5 5 3 12 10 5 5 3 3 3 3 1 5 6 7 7 5 4 3 5 3 3 5 5 6 4 2 4 9 6 13 12 11 11 11 9 8 8 7 7 7
3 1 5 8 7 5 11 14 15 14 7 3 4 3 4 4 5 3 4 5 4 4 4 2 3 6 2 7 7 2 3 4 4 6 5 5 5 7 6 7 7 8 10 9 9 11 11 10 8 8 7 6 6 6
7 5 8 7 10 6 11 14 11 4 1 2 3 3 4 4 3 5 4 4 5 4 5 6 6 1 4 2 2 3 3 3 2 5 4 4 7 7 9 10 11 10 12 15 15 14 12 10 8 7 7 7 6 6
10 9 8 4 8 9 11 7 3 6 5 3 5 5 4 4 3 7 9 4 4 5 6 7 8 4 5 2 2 4 5 3 3 4 4 4 8 8 11 11 12 14 16 16 15 13 12 10 8 7 7 7 6 6
11 11 8 2 7 16 11 7 4 4 5 3 4 3 5 5 6 3 4 5 4 4 8 7 6 3 2 4 1 5 2 2 4 4 4 7 10 11 11 12 14 15 15 14 13 11 9 9 8 8 7 6 6 7
15 11 4 2 1 13 11 7 3 2 3 3 3 3 6 2 2 3 2 3 4 4 7 5 4 4 4 3 2 2 4 4 4 2 5 8 12 12 12 13 15 14 12 11 10 9 8 8 8 7 7 6 7 7
16 9 2 5 5 10 6 3 2 3 3 3 3 4 4 4 5 5 5 4 4 5 4 2 4 4 2 2 5 5 3 4 3 4 5 11 13 11 12 13 12 11 10 10 8 8 8 7 7 7 7 7 7 7
8 0 4 8 14 10 8 1 1 2 2 3 2 1 0 2 3 4 3 4 3 7 7 4 6 5 4 5 4 3 2 5 4 5 7 12 12 11 12 12 11 11 10 9 9 8 8 7 7 7 8 7 7 7
3 4 8 7 6 4 2 1 2 2 2 2 2 3 2 2 3 4 3 4 5 6 5 3 3 5 4 5 4 4 4 5 5 8 8 9 11 12 11 12 11 10 9 8 8 9 8 7 7 7 8 7 7 6
7 7 8 6 4 2 1 2 3 1 3 2 2 2 1 3 3 2 1 3 2 2 2 3 3 4 3 2 2 4 5 6 8 8 9 10 11 12 12 12 11 9 9 9 8 6 6 4 5 5 6 6 4 4
11 8 8 8 1 2 3 2 1 2 2 3 1 2 2 3 1 2 3 3 3 4 5 4 3 2 1 5 2 1 5 6 9 10 10 9 8 12 12 11 8 10 8 8 6 2 6 6 5 5 4 2 4 5
2 2 1 4 2 2 2 2 2 3 3 3 2 2 3 3 2 2 3 1 3 1 3 2 3 4 3 3 3 4 6 7 7 8 10 10 10 10 9 8 9 7 7 6 6 6 3 5 5 5 6 5 4 4
3 7 2 2 1 2 2 1 3 1 2 1 1 2 1 2 2 2 2 1 2 0 3 1 3 4 5 6 6 5 8 8 7 6 6 10 8 9 8 7 7 7 5 4 4 4 4 4 5 4 3 4 4 4
4 3 3 3 3 2 2 2 3 1 1 2 2 2 1 2 2 2 1 1 2 1 1 1 4 4 5 6 7 8 8 9 8 8 8 7 6 6 6 6 6 5 5 5 4 3 2 1 5 5 5 5 4 5
2 2 2 1 2 3 1 2 1 1 1 1 1 2 2 1 1 2 2 2 3 4 4 5 5 5 6 8 7 7 6 5 7 6 5 5 6 6 6 6 6 5 4 4 7 7 6 7 4 7 7 7 7 6
1 2 1 2 2 2 2 2 2 1 2 2 3 3 2 2 2 3 3 2 4 5 5 6 6 5 5 5 7 7 5 4 5 5 4 4 4 5 5 5 5 4 4 5 5 6 6 5 6 7 9 9 9 9
1 2 1 2 3 3 4 4 5 4 3 3 2 1 2 3 4 4 2 1 2 3 5 7 7 6 5 6 7 6 6 4 4 4 5 4 5 5 6 7 6 6 5 5 5 6 7 8 8 10 11 11 8 9
2 3 3 1 1 3 3 2 3 2 4 3 3 5 4 4 4 2 1 1 0 2 2 4 5 6 6 6 5 6 6 5 1 4 6 5 3 1 2 4 5 2 2 6 6 7 8 8 8 10 10 10 10 10
3 3 4 5 3 2 1 3 4 5 4 3 3 6 3 3 1 2 1 2 1 1 3 4 3 3 5 7 6 7 6 5 6 5 5 4 3 3 3 3 2 4 4 3 5 6 7 8 8 9 10 10 11 11
4 4 4 5 3 4 4 4 4 3 2 4 3 3 2 1 1 2 3 2 1 4 5 7 6 5 6 6 5 4 5 5 8 9 9 6 5 5 5 5 5 6 5 6 5 5 5 6 4 5 8 9 11 10
5 5 4 3 3 5 4 5 2 2 3 2 2 2 2 2 2 1 2 2 2 3 3 4 5 6 6 7 6 4 3 3 3 4 6 6 4 1 3 4 4 3 4 6 5 5 3 6 6 7 7 7 8 9
4 5 4 4 4 5 6 3 3 2 2 4 5 4 2 2 3 3 3 3 4 4 4 5 5 5 6 7 6 6 6 6 6 6 5 4 4 4 4 4 4 4 4 4 5 7 8 7 7 8 7 10 11 9
5 6 5 6 4 6 6 7 5 4 5 5 5 5 5 4 5 6 6 5 5 5 3 3 5 5 4 3 3 2 1 2 4 4 5 5 4 2 4 4 4 3 5 5 5 6 7 7 7 6 7 9 8 6
6 6 6 2 4 6 6 6 6 4 4 4 4 5 5 4 4 3 3 6 6 5 6 6 4 5 6 7 5 3 3 3 4 3 2 3 4 2 3 3 4 4 7 6 6 8 9 11 9 5 6 10 8 9
Wind_Direction
339 345 337 329 317 181 174 172 169 168 164 162 165 164 160 166 152 248 82 31 324 281 91 290 34 26 309 328 284 90 191 175 182 203 222 133 210 129 222 41 257 252 262 198 247 252 236 6 1 341 345 328 333 20
0 356 351 352 42 128 157 166 165 174 173 171 162 155 155 143 147 256 102 112 299 273 13 319 299 299 299 357 326 83 45 77 37 149 160 128 162 179 252 206 182 241 334 355 327 33 54 48 47 22 28 15 353 9
7 4 5 6 16 169 164 166 173 169 173 163 151 147 144 141 124 295 152 147 215 270 225 237 147 84 7 255 326 310 110 22 96 318 35 67 206 272 208 190 245 170 186 266 230 81 86 79 58 48 38 51 25 356
15 12 13 20 17 41 182 177 187 174 153 144 142 136 133 124 126 221 186 141 271 294 265 120 185 200 38 121 203 33 80 128 230 277 40 329 142 256 147 53 283 26 172 190 102 106 115 89 122 110 70 65 23 353
14 23 25 39 35 34 61 106 131 131 127 126 126 130 129 125 132 152 133 145 8 304 312 123 184 89 132 182 167 161 44 352 18 168 167 119 94 215 163 257 211 174 48 337 70 131 110 157 161 321 337 347 313 256
13 22 39 64 64 55 52 64 87 101 112 120 121 127 131 149 186 215 164 171 190 308 284 186 75 141 120 148 147 158 117 20 343 326 54 113 57 277 249 133 59 114 93 78 124 132 147 135 116 14 31 26 34 52
10 25 38 65 101 90 78 77 95 108 120 124 142 147 149 161 216 291 6 52 175 211 250 178 156 120 146 145 147 152 185 73 311 22 237 293 167 256 264 184 83 134 117 117 121 141 158 164 56 46 69 73 81 80
9 17 42 53 117 128 120 106 98 102 109 114 121 125 134 172 225 177 129 144 259 246 243 229 114 165 191 174 155 189 171 198 163 340 190 235 145 236 253 96 126 136 128 143 123 120 105 109 97 90 106 111 85 75
5 15 32 57 84 139 134 134 127 117 123 115 116 129 139 226 191 81 127 168 264 302 212 227 184 141 181 163 107 167 246 206 93 234 191 237 194 222 92 120 150 155 159 152 136 126 123 116 110 110 102 82 75 60
348 20 39 36 62 142 138 138 132 122 125 132 169 194 148 111 112 143 168 182 206 196 217 235 110 142 206 171 180 142 205 196 196 145 119 236 209 85 79 77 170 147 147 147 144 138 131 124 113 98 79 61 46 41
210 80 78 34 28 157 141 135 124 120 140 213 184 82 73 143 211 199 147 198 165 203 190 171 226 149 175 191 154 284 181 154 233 122 247 178 218 127 129 115 126 131 140 151 118 125 117 118 119 108 94 79 69 56
191 153 101 35 10 171 144 133 144 190 242 38 69 112 156 202 201 196 179 157 215 179 162 177 148 140 124 289 136 185 221 184 227 129 229 223 97 124 140 125 124 123 125 120 119 116 108 100 93 92 88 79 69 64
177 145 105 36 328 168 140 138 151 100 153 205 198 152 192 151 186 199 173 172 188 168 164 167 148 159 149 164 178 196 207 182 123 211 217 53 116 136 135 133 127 127 123 119 114 109 101 94 85 81 85 74 72 71
156 131 103 343 308 140 140 129 148 175 237 224 152 134 218 179 207 180 173 138 104 160 158 175 133 151 127 154 208 199 77 210 221 231 193 122 143 139 143 135 134 133 129 125 119 113 109 100 91 78 65 57 68 74
124 117 110 284 287 134 117 86 55 335 31 263 239 188 195 97 135 135 117 157 132 138 143 151 129 192 138 142 215 133 182 224 227 209 92 129 141 142 136 140 138 138 134 127 123 117 108 100 94 86 74 81 85 91
114 94 299 276 165 118 100 94 92 208 208 242 228 191 145 199 145 167 174 152 142 152 152 166 133 156 172 176 191 199 203 223 108 99 112 139 142 138 141 142 141 134 129 125 118 111 110 110 101 102 107 107 104 101
104 232 240 127 114 103 49 94 261 292 291 227 146 98 326 23 97 123 168 131 162 177 175 134 186 161 133 203 190 211 209 65 83 115 136 143 144 140 141 136 136 137 134 127 124 118 109 115 122 125 122 120 113 100
104 128 131 92 84 19 346 333 274 265 132 72 158 83 92 46 127 126 130 155 182 194 178 157 136 185 180 171 187 146 122 97 100 122 128 134 136 138 141 142 143 139 134 133 130 128 133 135 129 114 127 129 127 130
133 132 114 134 137 124 276 95 322 16 35 54 88 87 60 91 84 82 220 153 221 300 190 199 173 197 179 103 28 123 133 142 133 127 122 131 137 141 141 142 138 139 142 140 150 155 137 157 101 142 141 177 149 148
103 84 76 48 300 241 166 119 245 287 47 35 12 67 62 64 45 76 114 132 169 187 183 209 188 123 118 63 59 88 127 135 144 140 137 136 137 144 148 149 149 143 143 140 141 156 148 168 165 157 201 175 177 152
107 140 29 314 18 350 28 13 29 6 349 24 41 10 71 133 108 118 135 259 187 150 156 151 134 107 71 83 113 131 139 159 164 160 146 143 151 147 153 140 158 154 155 153 151 130 240 162 155 166 162 203 202 171
104 155 303 137 240 138 71 175 321 13 289 47 2 360 33 102 125 60 333 189 146 220 354 21 105 134 136 125 132 143 130 131 119 110 116 132 150 160 163 164 172 171 154 147 147 147 168 166 163 161 209 157 235 189
163 205 222 203 182 129 132 216 210 38 169 100 176 158 100 86 46 303 227 174 109 28 19 91 115 103 100 114 124 130 144 154 149 135 148 165 160 168 174 174 189 182 170 180 181 201 158 14 149 191 177 233 193 162
175 303 340 46 55 96 171 116 118 91 110 130 132 120 131 91 319 222 245 206 163 137 165 158 156 138 134 149 146 142 150 136 129 133 145 163 172 174 192 185 188 199 215 199 192 192 195 209 172 192 186 200 233 187
290 10 15 360 77 94 98 105 96 152 130 142 177 163 160 204 214 222 212 225 185 182 161 173 176 191 158 146 137 126 154 158 149 145 152 194 168 147 174 186 190 212 191 206 205 215 212 193 192 191 201 203 224 225
5 134 190 147 140 202 162 162 183 168 157 159 184 150 204 222 227 226 197 188 230 180 189 186 177 169 162 164 149 153 146 154 161 165 150 174 190 195 185 192 194 186 204 236 255 231 235 215 220 199 209 205 214 257
257 178 167 203 281 155 163 139 146 173 175 184 179 186 200 224 220 182 128 137 82 107 212 201 193 203 171 156 134 122 138 154 115 99 137 161 170 199 255 234 240 263 147 226 231 238 243 243 230 220 220 210 203 212
250 216 210 163 198 214 188 190 191 195 181 174 204 199 216 227 181 94 85 65 352 199 184 170 160 153 143 147 141 142 137 127 129 131 132 153 174 195 223 242 235 77 279 251 245 238 242 248 243 245 218 203 201 208
220 186 197 172 190 213 222 223 208 191 202 202 210 194 194 77 27 76 89 73 104 151 158 154 137 124 122 128 131 132 149 161 179 187 209 232 207 203 196 227 205 205 219 217 175 291 302 289 318 282 228 196 196 206
200 191 178 157 199 226 230 194 220 191 200 223 290 219 218 151 77 131 155 169 128 95 122 155 158 157 148 149 141 132 150 174 208 227 246 259 279 315 209 212 210 216 216 216 241 210 161 230 204 217 199 206 197 214
163 178 214 185 235 215 221 166 181 219 216 234 225 259 261 128 147 167 179 147 137 134 145 145 148 152 162 165 164 168 169 181 210 237 255 256 220 215 230 236 214 216 214 215 228 252 229 215 225 223 209 210 212 207
174 187 213 200 206 166 180 193 198 216 200 205 197 195 181 205 198 176 185 189 190 177 128 167 161 160 157 153 162 135 343 146 174 205 208 213 266 264 204 230 178 213 262 242 219 227 248 225 238 213 215 213 200 221
210 205 219 222 157 175 166 183 198 200 194 200 193 199 200 214 214 127 158 212 224 200 180 183 185 152 168 194 200 180 196 203 107 93 76 45 31 13 272 237 224 229 244 230 220 227 195 216 223 220 230 247 248 232